Date,TemperatureHighF,TemperatureAvgF,TemperatureLowF,DewpointHighF,DewpointAvgF,DewpointLowF,HumidityHigh,HumidityAvg,HumidityLow,PressureMaxIn,PressureMinIn,WindSpeedMaxMPH,WindSpeedAvgMPH,GustSpeedMaxMPH,PrecipitationSumIn
2013-10-1,63.0,46.0,32.4,40.1,35.7,29.7,91,70,39,30.14,29.98,7,1,8,0.00
2013-10-2,58.6,44.0,31.5,40.2,33.5,28.6,91,69,38,30.40,30.13,4,1,4,0.00
2013-10-3,59.2,43.4,30.0,38.7,32.1,26.8,91,67,38,30.45,30.36,5,1,7,0.00
2013-10-4,65.3,46.7,34.2,36.6,32.2,29.0,83,60,29,30.42,30.26,6,1,6,0.00
2013-10-5,62.6,47.2,35.8,43.7,36.4,30.5,82,68,41,30.26,30.09,4,0,5,0.00
2013-10-6,64.2,51.1,42.4,46.4,42.2,38.7,87,73,48,30.35,30.16,2,0,2,0.00
2013-10-7,58.8,52.3,45.3,48.8,45.8,41.9,88,79,62,30.41,30.35,2,0,2,0.00
2013-10-8,67.3,50.9,39.7,51.9,44.6,37.2,94,81,50,30.37,30.24,3,0,3,0.00
2013-10-9,59.7,51.1,41.5,50.2,45.8,39.3,93,83,67,30.25,29.96,5,0,5,0.00
2013-10-10,67.3,54.3,47.5,52.9,48.1,45.0,92,81,54,29.95,29.72,9,1,10,1.00
2013-10-11,57.0,48.3,43.3,55.3,46.3,41.4,95,93,88,30.15,29.86,6,0,6,0.49
2013-10-12,54.1,47.8,41.0,52.3,46.0,39.3,95,94,91,30.16,30.02,4,0,8,0.08
2013-10-13,63.3,50.3,40.8,47.9,44.2,38.1,94,81,55,30.23,30.10,6,1,18,0.00
2013-10-14,55.2,44.1,36.7,48.3,41.3,34.5,94,90,75,30.24,30.10,12,0,23,0.00
2013-10-15,55.8,48.6,39.6,51.3,45.0,37.7,95,88,78,30.11,29.78,5,0,8,0.00
2013-10-16,56.1,49.4,44.2,47.9,44.6,40.5,90,83,70,30.05,29.77,5,1,6,0.00
2013-10-17,64.9,50.3,37.6,50.6,44.5,35.2,94,81,59,30.05,29.88,8,2,12,0.12
2013-10-18,57.7,51.8,41.9,49.3,44.1,38.6,88,75,63,30.21,29.88,9,2,14,0.02
2013-10-19,66.0,46.4,34.7,50.6,40.9,32.6,95,83,51,30.21,30.04,4,0,4,0.00
2013-10-20,63.3,51.3,40.6,54.1,47.5,38.4,94,87,71,30.12,30.04,3,0,7,0.12
2013-10-21,72.3,60.2,51.4,56.8,54.0,49.6,95,81,57,30.11,30.06,7,1,13,0.00
2013-10-22,67.6,54.5,48.0,58.5,51.1,46.1,95,89,70,30.11,29.97,2,0,2,0.00
2013-10-23,63.7,56.9,50.9,56.9,53.6,48.8,95,89,76,30.02,29.91,3,0,3,0.05
2013-10-24,72.7,59.7,50.0,56.3,52.4,46.6,93,78,49,30.20,30.02,6,1,10,0.00
2013-10-25,57.2,51.7,46.9,54.0,49.3,44.4,95,92,88,30.19,30.09,2,0,2,0.00
2013-10-26,73.8,58.7,51.1,60.1,53.6,49.4,95,84,60,30.12,30.03,3,0,3,0.00
2013-10-27,71.2,59.1,52.5,55.2,50.9,46.1,95,76,50,30.04,29.80,8,1,20,0.02
2013-10-28,78.4,63.9,54.5,53.2,48.8,44.9,76,60,32,29.94,29.67,8,2,11,0.00
2013-10-29,62.4,56.6,51.1,47.8,45.9,43.8,81,67,56,30.12,29.85,9,1,14,0.00
2013-10-30,62.4,50.5,37.2,45.8,39.8,31.9,82,68,39,30.41,30.11,7,1,11,0.00
2013-10-31,57.4,41.5,30.9,42.0,34.6,28.0,92,78,52,30.43,30.22,6,0,6,0.00